TimeCST,TemperatureF,Dew PointF,Humidity,Sea Level PressureIn,VisibilityMPH,Wind Direction,Wind SpeedMPH,Gust SpeedMPH,PrecipitationIn,Events,Conditions,WindDirDegrees,DateUTC
12:54 AM,26.1,12.9,58,30.17,10.0,SSW,11.5,-,N/A,,Overcast,210,2013-02-02 06:54:00
1:54 AM,27.0,14.0,58,30.14,10.0,SSW,10.4,-,N/A,,Overcast,200,2013-02-02 07:54:00
2:54 AM,28.4,14.0,55,30.09,10.0,SSW,13.8,-,N/A,,Overcast,210,2013-02-02 08:54:00
3:54 AM,28.0,15.1,58,30.09,10.0,SW,10.4,-,N/A,,Overcast,220,2013-02-02 09:54:00
4:54 AM,28.9,16.0,58,30.08,10.0,WSW,9.2,-,N/A,,Overcast,240,2013-02-02 10:54:00
5:54 AM,28.4,15.8,59,30.05,9.0,West,10.4,-,N/A,Snow,Light Snow,260,2013-02-02 11:54:00
6:54 AM,28.9,17.1,61,30.08,10.0,West,8.1,-,0.00,,Overcast,260,2013-02-02 12:54:00
7:54 AM,28.9,17.1,61,30.09,10.0,West,10.4,-,N/A,,Mostly Cloudy,280,2013-02-02 13:54:00
8:54 AM,28.9,18.0,64,30.10,10.0,WNW,12.7,-,N/A,,Partly Cloudy,300,2013-02-02 14:54:00
9:54 AM,30.9,19.0,61,30.12,10.0,NW,17.3,-,N/A,,Scattered Clouds,320,2013-02-02 15:54:00
10:54 AM,30.0,19.0,64,30.14,10.0,NNW,16.1,24.2,N/A,,Scattered Clouds,330,2013-02-02 16:54:00
11:43 AM,28.4,17.6,64,30.12,10.0,NW,17.3,-,N/A,,Mostly Cloudy,320,2013-02-02 17:43:00
11:54 AM,28.0,17.1,63,30.14,10.0,NNW,13.8,21.9,N/A,,Mostly Cloudy,330,2013-02-02 17:54:00
12:26 PM,26.6,17.6,69,30.12,10.0,NW,18.4,24.2,N/A,,Scattered Clouds,310,2013-02-02 18:26:00
12:44 PM,26.6,17.6,69,30.12,10.0,NNW,17.3,-,N/A,,Mostly Cloudy,330,2013-02-02 18:44:00
12:54 PM,28.0,17.1,63,30.14,10.0,NW,20.7,25.3,N/A,,Mostly Cloudy,310,2013-02-02 18:54:00
1:03 PM,28.4,15.8,59,30.11,10.0,NW,18.4,24.2,N/A,,Scattered Clouds,310,2013-02-02 19:03:00
1:34 PM,28.4,15.8,59,30.11,10.0,NNW,15.0,-,N/A,,Mostly Cloudy,330,2013-02-02 19:34:00
1:54 PM,28.0,16.0,61,30.14,10.0,NW,17.3,21.9,N/A,,Mostly Cloudy,310,2013-02-02 19:54:00
2:16 PM,28.4,15.8,59,30.11,10.0,NNW,11.5,-,N/A,,Scattered Clouds,330,2013-02-02 20:16:00
2:54 PM,28.0,15.1,58,30.14,10.0,WNW,12.7,-,N/A,,Mostly Cloudy,300,2013-02-02 20:54:00
3:54 PM,28.0,12.9,53,30.15,10.0,NNW,16.1,-,N/A,,Scattered Clouds,330,2013-02-02 21:54:00
4:54 PM,26.1,14.0,60,30.16,10.0,NNW,11.5,-,N/A,,Overcast,330,2013-02-02 22:54:00
5:54 PM,25.0,14.0,63,30.15,10.0,NNW,6.9,-,N/A,,Mostly Cloudy,330,2013-02-02 23:54:00
6:54 PM,25.0,15.1,66,30.15,10.0,NW,8.1,-,N/A,,Overcast,320,2013-02-03 00:54:00
7:54 PM,25.0,14.0,63,30.13,10.0,NNW,3.5,-,N/A,,Overcast,340,2013-02-03 01:54:00
8:46 PM,24.8,14.0,64,30.10,4.0,NW,3.5,-,0.00,Snow,Light Snow,320,2013-02-03 02:46:00
8:54 PM,24.1,16.0,71,30.13,1.8,NW,3.5,-,0.00,Snow,Light Snow,310,2013-02-03 02:54:00
9:30 PM,23.0,19.4,86,30.09,2.5,Calm,Calm,-,0.00,Snow,Light Snow,0,2013-02-03 03:30:00
9:36 PM,23.0,19.4,86,30.09,3.0,Calm,Calm,-,0.00,Snow,Light Snow,0,2013-02-03 03:36:00
9:45 PM,23.0,19.4,86,30.08,5.0,Calm,Calm,-,0.00,,Overcast,0,2013-02-03 03:45:00
9:54 PM,23.0,19.0,85,30.09,7.0,Calm,Calm,-,0.00,,Overcast,0,2013-02-03 03:54:00
10:46 PM,23.0,19.4,86,30.04,3.0,SE,3.5,-,0.01,Snow,Light Snow,130,2013-02-03 04:46:00
10:54 PM,23.0,19.9,88,30.06,6.0,ESE,4.6,-,0.01,,Overcast,120,2013-02-03 04:54:00
11:54 PM,24.1,21.0,88,30.05,10.0,South,3.5,-,N/A,,Overcast,190,2013-02-03 05:54:00